Location: Unspecified
(41.5000°N, 0.0000°E)
Time: 06:07:02
(UTC+00:00)

deb Explorer IX - Pass Details

Date: 21 June 2019
Orbit: 538 x 1112 km, 38.8° (Epoch: 14 July)

Event Time Altitude Azimuth Distance (km) Brightness Sun altitude
Rises 20:49:43 0° 271° (W) 3,777 ? -11.3°
Maximum altitude 20:56:23 10° 225° (SW) 2,635 ? -12.2°
Drops below altitude 10° 20:56:37 10° 223° (SW) 2,629 ? -12.2°
Enters shadow 21:00:59 - 187° (S) 3,035 ? -12.7°
Sets 21:02:29 0° 178° (S) 3,355 - -12.9°
